| time (UTC) | temp C | wind direction | speed KPH | gust KPH | rain 1hr cm | rain 24hr cm | rain mn cm | humidity % | barometer mb |
| 20260507181100 | 17 | 319 | 6.4 | 20.9 | 0.00 | 1.27 | 0.99 | 32 | 1006.6 |
| 20260507180603 | 17 | 344 | 6.4 | 22.5 | 0.00 | 1.27 | 0.99 | 34 | 1006.6 |
| 20260507180059 | 17 | 340 | 9.7 | 22.5 | 0.00 | 1.27 | 0.99 | 32 | 1006.7 |
| 20260507175601 | 17 | 15 | 8.0 | 22.5 | 0.00 | 1.27 | 0.99 | 34 | 1006.6 |
| 20260507175101 | 17 | 265 | 6.4 | 14.5 | 0.00 | 1.27 | 0.99 | 39 | 1006.6 |
| 20260507174603 | 18 | 279 | 1.6 | 11.3 | 0.00 | 1.27 | 0.99 | 40 | 1006.6 |
| 20260507174100 | 18 | 194 | 3.2 | 17.7 | 0.00 | 1.27 | 0.99 | 45 | 1006.6 |
| 20260507173600 | 17 | 296 | 1.6 | 17.7 | 0.00 | 1.27 | 0.99 | 43 | 1006.7 |
| 20260507173102 | 17 | 280 | 4.8 | 12.9 | 0.00 | 1.27 | 0.99 | 44 | 1006.8 |
| 20260507172603 | 17 | 267 | 6.4 | 12.9 | 0.00 | 1.27 | 0.99 | 42 | 1006.7 |
| 20260507172102 | 17 | 203 | 3.2 | 12.9 | 0.00 | 1.27 | 0.99 | 50 | 1006.7 |
| 20260507171606 | 17 | 271 | 6.4 | 19.3 | 0.00 | 1.27 | 0.99 | 45 | 1007.0 |
| 20260507171101 | 17 | 304 | 4.8 | 19.3 | 0.00 | 1.27 | 0.99 | 45 | 1007.0 |
| 20260507170604 | 17 | 336 | 3.2 | 12.9 | 0.00 | 1.27 | 0.99 | 46 | 1007.0 |
| 20260507170059 | 18 | 246 | 4.8 | 11.3 | 0.00 | 1.27 | 0.99 | 51 | 1007.2 |
| 20260507165600 | 17 | 232 | 3.2 | 12.9 | 0.00 | 1.27 | 0.99 | 50 | 1007.2 |
| 20260507165101 | 17 | 189 | 3.2 | 14.5 | 0.00 | 1.27 | 0.99 | 49 | 1007.2 |
| 20260507164604 | 17 | 218 | 6.4 | 14.5 | 0.00 | 1.27 | 0.99 | 49 | 1007.3 |
| 20260507164101 | 17 | 182 | 3.2 | 14.5 | 0.00 | 1.27 | 0.99 | 53 | 1007.3 |
| 20260507163602 | 17 | 298 | 3.2 | 14.5 | 0.00 | 1.27 | 0.99 | 49 | 1007.4 |
| 20260507163100 | 17 | 214 | 1.6 | 11.3 | 0.00 | 1.27 | 0.99 | 55 | 1007.5 |
| 20260507162559 | 16 | 196 | 4.8 | 11.3 | 0.00 | 1.27 | 0.99 | 54 | 1007.5 |
| 20260507162058 | 16 | 215 | 3.2 | 12.9 | 0.00 | 1.27 | 0.99 | 57 | 1007.5 |
| 20260507161611 | 15 | 259 | 4.8 | 12.9 | 0.00 | 1.27 | 0.99 | 56 | 1007.6 |
| 20260507161101 | 16 | 313 | 4.8 | 11.3 | 0.00 | 1.27 | 0.99 | 56 | 1007.6 |
| 20260507160601 | 16 | 162 | 6.4 | 11.3 | 0.00 | 1.27 | 0.99 | 60 | 1007.6 |
| 20260507160112 | 16 | 249 | 3.2 | 11.3 | 0.00 | 1.27 | 0.99 | 59 | 1007.8 |
| 20260507155623 | 16 | 176 | 3.2 | 11.3 | 0.00 | 1.27 | 0.99 | 58 | 1007.8 |
| 20260507155059 | 16 | 265 | 4.8 | 14.5 | 0.00 | 1.27 | 0.99 | 59 | 1007.9 |
| 20260507154601 | 15 | 309 | 6.4 | 14.5 | 0.00 | 1.27 | 0.99 | 59 | 1008.0 |
| 20260507154100 | 15 | 314 | 0.0 | 9.7 | 0.00 | 1.27 | 0.99 | 61 | 1008.1 |
| 20260507153600 | 15 | 213 | 4.8 | 16.1 | 0.00 | 1.27 | 0.99 | 61 | 1008.1 |
| 20260507153114 | 15 | 268 | 6.4 | 16.1 | 0.00 | 1.27 | 0.99 | 62 | 1008.1 |
| 20260507152602 | 15 | 291 | 3.2 | 16.1 | 0.00 | 1.27 | 0.99 | 60 | 1008.1 |
| 20260507152059 | 15 | 154 | 1.6 | 16.1 | 0.00 | 1.27 | 0.99 | 64 | 1008.1 |
| 20260507151601 | 15 | 223 | 4.8 | 19.3 | 0.00 | 1.27 | 0.99 | 59 | 1008.2 |
| 20260507151101 | 15 | 267 | 4.8 | 19.3 | 0.00 | 1.27 | 0.99 | 59 | 1008.3 |
| 20260507150602 | 15 | 332 | 6.4 | 19.3 | 0.00 | 1.27 | 0.99 | 59 | 1008.3 |
| 20260507150109 | 15 | 325 | 3.2 | 12.9 | 0.00 | 1.27 | 0.99 | 61 | 1008.3 |
| 20260507145601 | 15 | 315 | 4.8 | 12.9 | 0.00 | 1.27 | 0.99 | 61 | 1008.4 |
| 20260507145104 | 14 | 237 | 3.2 | 12.9 | 0.00 | 1.27 | 0.99 | 60 | 1008.4 |
| 20260507144558 | 14 | 213 | 6.4 | 14.5 | 0.00 | 1.27 | 0.99 | 59 | 1008.3 |
| 20260507144100 | 14 | 350 | 4.8 | 14.5 | 0.00 | 1.27 | 0.99 | 61 | 1008.3 |
| 20260507143601 | 14 | 0 | 4.8 | 14.5 | 0.00 | 1.27 | 0.99 | 60 | 1008.3 |
| 20260507143101 | 14 | 0 | 4.8 | 12.9 | 0.00 | 1.27 | 0.99 | 65 | 1008.2 |
| 20260507142601 | 13 | 262 | 4.8 | 9.7 | 0.00 | 1.27 | 0.99 | 65 | 1008.3 |
| 20260507142102 | 13 | 221 | 1.6 | 12.9 | 0.00 | 1.27 | 0.99 | 70 | 1008.4 |
| 20260507141603 | 13 | 56 | 3.2 | 12.9 | 0.00 | 1.27 | 0.99 | 70 | 1008.5 |
| 20260507141101 | 13 | 312 | 6.4 | 12.9 | 0.00 | 1.27 | 0.99 | 69 | 1008.6 |
| 20260507140601 | 13 | 219 | 3.2 | 11.3 | 0.00 | 1.27 | 0.99 | 72 | 1008.6 |
| 20260507140059 | 13 | 255 | 3.2 | 14.5 | 0.00 | 1.27 | 0.99 | 74 | 1008.6 |
| 20260507135604 | 12 | 202 | 3.2 | 14.5 | 0.00 | 1.27 | 0.99 | 77 | 1008.7 |
| 20260507135104 | 12 | 305 | 4.8 | 14.5 | 0.00 | 1.27 | 0.99 | 79 | 1008.6 |
| 20260507134611 | 12 | 242 | 3.2 | 12.9 | 0.00 | 1.27 | 0.99 | 82 | 1008.5 |
| 20260507134101 | 12 | 306 | 3.2 | 12.9 | 0.00 | 1.27 | 0.99 | 86 | 1008.4 |
| 20260507133601 | 11 | 222 | 4.8 | 14.5 | 0.00 | 1.27 | 0.99 | 88 | 1008.6 |
| 20260507133101 | 11 | 251 | 3.2 | 14.5 | 0.00 | 1.27 | 0.99 | 89 | 1008.6 |
| 20260507132559 | 11 | 277 | 1.6 | 11.3 | 0.00 | 1.27 | 0.99 | 91 | 1008.8 |
| 20260507132059 | 10 | 229 | 3.2 | 11.3 | 0.00 | 1.27 | 0.99 | 91 | 1008.7 |
| 20260507131601 | 11 | 266 | 3.2 | 14.5 | 0.00 | 1.27 | 0.99 | 92 | 1008.6 |
| 20260507131102 | 10 | 304 | 3.2 | 14.5 | 0.00 | 1.27 | 0.99 | 92 | 1008.5 |
| 20260507130559 | 10 | 236 | 1.6 | 6.4 | 0.00 | 1.27 | 0.99 | 93 | 1008.7 |
| 20260507130110 | 10 | 0 | 1.6 | 8.0 | 0.00 | 1.27 | 0.99 | 94 | 1008.7 |
| 20260507125601 | 10 | 0 | 1.6 | 8.0 | 0.00 | 1.27 | 0.99 | 93 | 1008.6 |
| 20260507125103 | 10 | 284 | 3.2 | 8.0 | 0.00 | 1.27 | 0.99 | 93 | 1008.6 |
| 20260507124620 | 10 | 0 | 0.0 | 4.8 | 0.03 | 1.27 | 0.99 | 94 | 1008.7 |
| 20260507124101 | 10 | 0 | 0.0 | 4.8 | 0.03 | 1.27 | 0.99 | 93 | 1008.7 |
| 20260507123601 | 10 | 0 | 1.6 | 4.8 | 0.03 | 1.27 | 0.99 | 94 | 1008.7 |
| 20260507123110 | 9 | 0 | 0.0 | 3.2 | 0.03 | 1.27 | 0.99 | 94 | 1008.6 |
| 20260507122559 | 9 | 0 | 0.0 | 0.0 | 0.05 | 1.27 | 0.99 | 93 | 1009.0 |
| 20260507122057 | 9 | 0 | 0.0 | 1.6 | 0.05 | 1.27 | 0.99 | 94 | 1009.0 |
| 20260507121604 | 9 | 0 | 0.0 | 1.6 | 0.08 | 1.27 | 0.99 | 94 | 1009.0 |
| 20260507121059 | 9 | 0 | 0.0 | 4.8 | 0.08 | 1.27 | 0.99 | 94 | 1009.0 |
| 20260507120559 | 9 | 0 | 0.0 | 4.8 | 0.10 | 1.27 | 0.99 | 94 | 1008.7 |
| 20260507115559 | 8 | 0 | 0.0 | 0.0 | 0.10 | 1.27 | 0.99 | 94 | 1008.6 |
| 20260507115101 | 8 | 0 | 0.0 | 0.0 | 0.13 | 1.27 | 0.99 | 93 | 1008.6 |
| 20260507114604 | 8 | 0 | 0.0 | 1.6 | 0.10 | 1.24 | 0.97 | 93 | 1008.6 |
| 20260507114101 | 8 | 0 | 0.0 | 3.2 | 0.10 | 1.24 | 0.97 | 93 | 1008.7 |
| 20260507113601 | 8 | 0 | 0.0 | 3.2 | 0.10 | 1.24 | 0.97 | 93 | 1008.5 |
| 20260507113100 | 8 | 0 | 0.0 | 3.2 | 0.10 | 1.24 | 0.97 | 93 | 1008.6 |
| 20260507112601 | 8 | 223 | 0.0 | 4.8 | 0.08 | 1.22 | 0.94 | 93 | 1008.9 |
| 20260507112104 | 8 | 0 | 1.6 | 11.3 | 0.08 | 1.22 | 0.94 | 93 | 1008.9 |
| 20260507111558 | 8 | 232 | 1.6 | 11.3 | 0.08 | 1.19 | 0.91 | 93 | 1008.5 |
| 20260507111059 | 8 | 325 | 3.2 | 9.7 | 0.08 | 1.19 | 0.91 | 93 | 1008.4 |
| 20260507110559 | 8 | 306 | 0.0 | 3.2 | 0.05 | 1.17 | 0.89 | 93 | 1008.8 |
| 20260507105600 | 8 | 279 | 0.0 | 3.2 | 0.08 | 1.17 | 0.89 | 93 | 1008.7 |
| 20260507105059 | 8 | 298 | 0.0 | 8.0 | 0.05 | 1.14 | 0.86 | 93 | 1008.3 |
| 20260507104558 | 8 | 261 | 1.6 | 8.0 | 0.08 | 1.14 | 0.86 | 93 | 1008.1 |
| 20260507104059 | 8 | 14 | 0.0 | 3.2 | 0.08 | 1.14 | 0.86 | 93 | 1007.9 |
| 20260507103600 | 8 | 0 | 0.0 | 4.8 | 0.08 | 1.14 | 0.86 | 93 | 1008.1 |
| 20260507103114 | 8 | 0 | 0.0 | 6.4 | 0.08 | 1.14 | 0.86 | 93 | 1008.1 |
| 20260507102559 | 8 | 292 | 0.0 | 6.4 | 0.08 | 1.14 | 0.86 | 93 | 1008.5 |
| 20260507102100 | 8 | 0 | 0.0 | 4.8 | 0.08 | 1.14 | 0.86 | 93 | 1008.5 |
| 20260507101603 | 8 | 265 | 0.0 | 6.4 | 0.05 | 1.12 | 0.84 | 93 | 1008.4 |
| 20260507101100 | 8 | 0 | 1.6 | 6.4 | 0.08 | 1.12 | 0.84 | 93 | 1008.5 |
| 20260507100559 | 8 | 257 | 0.0 | 4.8 | 0.08 | 1.12 | 0.84 | 93 | 1008.7 |
| 20260507100113 | 8 | 295 | 1.6 | 4.8 | 0.05 | 1.09 | 0.81 | 93 | 1008.4 |
| 20260507095603 | 8 | 307 | 0.0 | 6.4 | 0.05 | 1.09 | 0.81 | 93 | 1008.2 |
| 20260507095101 | 8 | 309 | 0.0 | 6.4 | 0.05 | 1.09 | 0.81 | 93 | 1008.2 |
| 20260507094559 | 8 | 291 | 1.6 | 6.4 | 0.03 | 1.07 | 0.79 | 93 | 1008.1 |
| 20260507094059 | 8 | 279 | 1.6 | 12.9 | 0.05 | 1.07 | 0.79 | 93 | 1008.2 |
| 20260507093601 | 8 | 287 | 3.2 | 12.9 | 0.05 | 1.07 | 0.79 | 93 | 1008.1 |
| 20260507093100 | 8 | 257 | 1.6 | 6.4 | 0.05 | 1.07 | 0.79 | 93 | 1008.2 |
| 20260507092559 | 8 | 272 | 3.2 | 12.9 | 0.08 | 1.07 | 0.79 | 93 | 1008.0 |
| 20260507092059 | 8 | 267 | 3.2 | 12.9 | 0.10 | 1.07 | 0.79 | 93 | 1007.8 |
| 20260507091600 | 9 | 298 | 1.6 | 6.4 | 0.10 | 1.07 | 0.79 | 93 | 1007.8 |
| 20260507091101 | 9 | 217 | 1.6 | 9.7 | 0.10 | 1.04 | 0.76 | 94 | 1008.5 |
| 20260507090600 | 9 | 248 | 1.6 | 9.7 | 0.18 | 1.04 | 0.76 | 93 | 1008.3 |
| 20260507090100 | 9 | 244 | 1.6 | 6.4 | 0.25 | 1.04 | 0.76 | 93 | 1008.0 |
| 20260507085600 | 9 | 226 | 3.2 | 16.1 | 0.30 | 1.04 | 0.76 | 93 | 1007.8 |
| 20260507085100 | 10 | 254 | 3.2 | 16.1 | 0.38 | 1.04 | 0.76 | 93 | 1007.4 |
| 20260507084601 | 10 | 219 | 4.8 | 16.1 | 0.43 | 1.04 | 0.76 | 94 | 1007.7 |
| 20260507084059 | 10 | 254 | 0.0 | 0.0 | 0.48 | 1.02 | 0.74 | 94 | 1007.6 |
| 20260507083559 | 10 | 0 | 0.0 | 0.0 | 0.61 | 1.02 | 0.74 | 94 | 1007.4 |
| 20260507083120 | 11 | 0 | 0.0 | 3.2 | 0.69 | 1.02 | 0.74 | 94 | 1007.5 |
| 20260507082600 | 11 | 0 | 0.0 | 6.4 | 0.71 | 0.99 | 0.71 | 94 | 1007.6 |
| 20260507082059 | 11 | 360 | 0.0 | 6.4 | 0.69 | 0.97 | 0.69 | 94 | 1007.5 |
| 20260507081605 | 11 | 0 | 0.0 | 9.7 | 0.69 | 0.97 | 0.69 | 94 | 1007.5 |
| 20260507081059 | 11 | 297 | 0.0 | 11.3 | 0.66 | 0.94 | 0.66 | 94 | 1007.7 |
| 20260507080600 | 11 | 274 | 1.6 | 11.3 | 0.58 | 0.86 | 0.58 | 94 | 1007.6 |
| 20260507080059 | 11 | 345 | 3.2 | 12.9 | 0.51 | 0.79 | 0.51 | 94 | 1007.7 |
| 20260507075602 | 11 | 0 | 1.6 | 12.9 | 0.46 | 0.74 | 0.46 | 93 | 1008.1 |
| 20260507075100 | 11 | 273 | 4.8 | 11.3 | 0.38 | 0.66 | 0.38 | 93 | 1007.6 |
| 20260507074616 | 11 | 249 | 3.2 | 11.3 | 0.33 | 0.61 | 0.33 | 94 | 1007.7 |
| 20260507074059 | 12 | 240 | 3.2 | 11.3 | 0.25 | 0.53 | 0.25 | 93 | 1007.1 |
| 20260507073600 | 12 | 16 | 1.6 | 11.3 | 0.13 | 0.41 | 0.13 | 94 | 1006.8 |
| 20260507073102 | 12 | 277 | 3.2 | 11.3 | 0.03 | 0.30 | 0.03 | 94 | 1006.6 |
| 20260507072559 | 12 | 224 | 1.6 | 6.4 | 0.00 | 0.28 | 0.00 | 94 | 1006.3 |
| 20260507072058 | 12 | 294 | 0.0 | 3.2 | 0.00 | 0.28 | 0.00 | 94 | 1006.1 |
| 20260507071600 | 12 | 210 | 0.0 | 1.6 | 0.00 | 0.28 | 0.00 | 94 | 1006.4 |
| 20260507071058 | 12 | 0 | 0.0 | 0.0 | 0.00 | 0.28 | 0.00 | 94 | 1006.3 |
| 20260507070601 | 12 | 0 | 0.0 | 0.0 | 0.00 | 0.28 | 0.00 | 94 | 1006.4 |
| 20260507070104 | 12 | 0 | 0.0 | 0.0 | 0.00 | 0.28 | 0.00 | 94 | 1006.4 |
| 20260507065559 | 12 | 0 | 0.0 | 0.0 | 0.00 | 0.28 | 0.00 | 94 | 1006.4 |
| 20260507065058 | 12 | 0 | 0.0 | 0.0 | 0.00 | 0.28 | 0.00 | 94 | 1006.4 |
| 20260507064602 | 12 | 0 | 0.0 | 0.0 | 0.00 | 0.28 | 0.00 | 94 | 1006.5 |
| 20260507064058 | 12 | 0 | 0.0 | 0.0 | 0.00 | 0.28 | 0.00 | 94 | 1006.4 |
| 20260507063558 | 12 | 0 | 0.0 | 0.0 | 0.00 | 0.28 | 0.00 | 94 | 1006.5 |
| 20260507063100 | 12 | 0 | 0.0 | 0.0 | 0.00 | 0.28 | 0.00 | 94 | 1006.6 |
| 20260507062600 | 12 | 0 | 0.0 | 0.0 | 0.00 | 0.28 | 0.00 | 94 | 1006.6 |
| 20260507062132 | 12 | 0 | 0.0 | 0.0 | 0.00 | 0.28 | 0.00 | 94 | 1006.5 |
| 20260507061601 | 12 | 0 | 0.0 | 0.0 | 0.00 | 0.28 | 0.00 | 94 | 1006.4 |
| 20260507061058 | 12 | 0 | 0.0 | 0.0 | 0.00 | 0.28 | 0.00 | 94 | 1006.4 |
| 20260507060557 | 12 | 0 | 0.0 | 0.0 | 0.00 | 0.28 | 0.00 | 94 | 1006.6 |
| 20260507060105 | 12 | 0 | 0.0 | 1.6 | 0.00 | 0.28 | 0.00 | 94 | 1006.8 |
| 20260507055559 | 12 | 0 | 0.0 | 1.6 | 0.00 | 0.28 | 0.00 | 94 | 1006.8 |
| 20260507055059 | 12 | 0 | 0.0 | 0.0 | 0.00 | 0.28 | 0.00 | 94 | 1006.8 |
| 20260507054559 | 12 | 0 | 0.0 | 3.2 | 0.00 | 0.28 | 0.00 | 94 | 1006.9 |
| 20260507054058 | 12 | 0 | 0.0 | 3.2 | 0.00 | 0.28 | 0.00 | 94 | 1007.0 |
| 20260507053559 | 12 | 0 | 0.0 | 3.2 | 0.00 | 0.28 | 0.00 | 94 | 1007.0 |
| 20260507053100 | 12 | 0 | 0.0 | 3.2 | 0.00 | 0.28 | 0.00 | 94 | 1007.0 |
| 20260507052600 | 12 | 0 | 0.0 | 3.2 | 0.00 | 0.28 | 0.00 | 94 | 1007.2 |
| 20260507052058 | 12 | 0 | 0.0 | 3.2 | 0.00 | 0.28 | 0.00 | 94 | 1007.2 |
| 20260507051601 | 13 | 0 | 0.0 | 4.8 | 0.00 | 0.28 | 0.00 | 94 | 1007.1 |
| 20260507051103 | 13 | 0 | 0.0 | 4.8 | 0.00 | 0.28 | 0.00 | 94 | 1007.3 |
| 20260507050603 | 12 | 0 | 0.0 | 4.8 | 0.00 | 0.28 | 0.00 | 94 | 1007.4 |
| 20260507045601 | 13 | 0 | 0.0 | 3.2 | 0.00 | 0.28 | 0.00 | 94 | 1007.5 |
| 20260507045104 | 12 | 0 | 0.0 | 3.2 | 0.00 | 0.28 | 0.00 | 94 | 1007.4 |
| 20260507044602 | 13 | 0 | 0.0 | 3.2 | 0.00 | 0.28 | 0.00 | 94 | 1007.2 |
| 20260507044104 | 13 | 0 | 0.0 | 6.4 | 0.00 | 0.28 | 0.00 | 94 | 1007.3 |
| 20260507043559 | 13 | 200 | 0.0 | 8.0 | 0.00 | 0.28 | 0.00 | 94 | 1007.4 |
| 20260507043103 | 13 | 171 | 0.0 | 8.0 | 0.00 | 0.28 | 0.00 | 94 | 1007.2 |
| 20260507042559 | 13 | 0 | 0.0 | 3.2 | 0.00 | 0.28 | 0.00 | 94 | 1007.1 |
| 20260507042059 | 13 | 0 | 0.0 | 3.2 | 0.00 | 0.28 | 0.00 | 94 | 1007.1 |
| 20260507041601 | 13 | 207 | 0.0 | 3.2 | 0.00 | 0.28 | 0.00 | 94 | 1007.0 |
| 20260507041058 | 12 | 0 | 0.0 | 3.2 | 0.00 | 0.28 | 0.00 | 94 | 1007.1 |
| 20260507040602 | 12 | 0 | 0.0 | 3.2 | 0.00 | 0.28 | 0.00 | 94 | 1007.0 |
| 20260507035558 | 12 | 0 | 0.0 | 3.2 | 0.00 | 0.28 | 0.28 | 94 | 1007.1 |
| 20260507035058 | 12 | 0 | 0.0 | 3.2 | 0.00 | 0.28 | 0.28 | 94 | 1007.1 |
| 20260507034600 | 12 | 0 | 0.0 | 6.4 | 0.00 | 0.28 | 0.28 | 94 | 1007.1 |
| 20260507034100 | 12 | 0 | 1.6 | 6.4 | 0.00 | 0.28 | 0.28 | 94 | 1007.3 |
| 20260507033559 | 12 | 158 | 0.0 | 6.4 | 0.00 | 0.28 | 0.28 | 94 | 1007.4 |
| 20260507033059 | 12 | 185 | 1.6 | 6.4 | 0.00 | 0.28 | 0.28 | 94 | 1007.5 |
| 20260507032601 | 12 | 0 | 0.0 | 3.2 | 0.00 | 0.28 | 0.28 | 94 | 1007.5 |
| 20260507032100 | 12 | 177 | 0.0 | 3.2 | 0.00 | 0.28 | 0.28 | 94 | 1007.4 |
| 20260507031600 | 12 | 194 | 0.0 | 6.4 | 0.00 | 0.28 | 0.28 | 94 | 1007.3 |
| 20260507031103 | 12 | 0 | 0.0 | 8.0 | 0.00 | 0.28 | 0.28 | 93 | 1007.4 |
| 20260507030559 | 12 | 163 | 1.6 | 8.0 | 0.00 | 0.28 | 0.28 | 93 | 1007.4 |
| 20260507030101 | 12 | 0 | 0.0 | 6.4 | 0.00 | 0.28 | 0.28 | 93 | 1007.2 |
| 20260507025604 | 12 | 0 | 0.0 | 6.4 | 0.00 | 0.28 | 0.28 | 93 | 1007.2 |
| 20260507025058 | 12 | 0 | 1.6 | 6.4 | 0.00 | 0.28 | 0.28 | 93 | 1007.3 |
| 20260507024620 | 12 | 207 | 1.6 | 6.4 | 0.00 | 0.28 | 0.28 | 93 | 1007.3 |
| 20260507024100 | 12 | 148 | 1.6 | 6.4 | 0.00 | 0.28 | 0.28 | 93 | 1007.3 |
| 20260507023604 | 12 | 223 | 1.6 | 4.8 | 0.00 | 0.28 | 0.28 | 93 | 1007.4 |
| 20260507023059 | 12 | 313 | 0.0 | 4.8 | 0.00 | 0.28 | 0.28 | 93 | 1007.2 |
| 20260507022558 | 12 | 0 | 0.0 | 8.0 | 0.00 | 0.28 | 0.28 | 93 | 1007.2 |
| 20260507022059 | 12 | 0 | 0.0 | 8.0 | 0.00 | 0.28 | 0.28 | 93 | 1007.4 |
| 20260507021600 | 12 | 200 | 1.6 | 8.0 | 0.00 | 0.28 | 0.28 | 93 | 1007.5 |
| 20260507021059 | 12 | 0 | 1.6 | 6.4 | 0.00 | 0.28 | 0.28 | 93 | 1007.4 |
| 20260507020559 | 12 | 131 | 0.0 | 8.0 | 0.00 | 0.28 | 0.28 | 93 | 1007.5 |
| 20260507020110 | 12 | 200 | 1.6 | 8.0 | 0.00 | 0.28 | 0.28 | 93 | 1007.6 |
| 20260507015558 | 12 | 0 | 0.0 | 6.4 | 0.00 | 0.28 | 0.28 | 93 | 1007.6 |
| 20260507015100 | 12 | 0 | 0.0 | 6.4 | 0.00 | 0.28 | 0.28 | 93 | 1007.7 |
| 20260507014609 | 12 | 0 | 0.0 | 8.0 | 0.00 | 0.28 | 0.28 | 93 | 1007.9 |
| 20260507014058 | 12 | 0 | 1.6 | 8.0 | 0.00 | 0.28 | 0.28 | 93 | 1007.8 |
| 20260507013558 | 12 | 200 | 1.6 | 8.0 | 0.00 | 0.28 | 0.28 | 93 | 1007.7 |
| 20260507013059 | 12 | 188 | 0.0 | 3.2 | 0.00 | 0.28 | 0.28 | 93 | 1007.8 |
| 20260507012601 | 12 | 0 | 0.0 | 6.4 | 0.00 | 0.28 | 0.28 | 93 | 1007.8 |
| 20260507012058 | 12 | 0 | 0.0 | 6.4 | 0.00 | 0.28 | 0.28 | 93 | 1007.9 |
| 20260507011603 | 12 | 0 | 1.6 | 12.9 | 0.00 | 0.28 | 0.28 | 93 | 1007.9 |
| 20260507011059 | 12 | 50 | 0.0 | 12.9 | 0.00 | 0.28 | 0.28 | 93 | 1008.0 |
| 20260507010559 | 12 | 182 | 0.0 | 6.4 | 0.00 | 0.28 | 0.28 | 93 | 1008.1 |
| 20260507010101 | 12 | 0 | 1.6 | 9.7 | 0.00 | 0.28 | 0.28 | 93 | 1008.1 |
| 20260507005558 | 12 | 164 | 1.6 | 9.7 | 0.00 | 0.28 | 0.28 | 93 | 1008.0 |
| 20260507005058 | 12 | 169 | 1.6 | 11.3 | 0.00 | 0.28 | 0.28 | 93 | 1007.9 |
| 20260507004601 | 12 | 205 | 1.6 | 11.3 | 0.00 | 0.28 | 0.28 | 93 | 1007.9 |
| 20260507004101 | 12 | 0 | 3.2 | 11.3 | 0.00 | 0.28 | 0.28 | 93 | 1007.9 |
| 20260507003558 | 12 | 178 | 1.6 | 9.7 | 0.00 | 0.28 | 0.28 | 93 | 1007.9 |
| 20260507003101 | 12 | 182 | 0.0 | 8.0 | 0.00 | 0.28 | 0.28 | 93 | 1008.0 |
| 20260507002559 | 12 | 157 | 1.6 | 8.0 | 0.00 | 0.28 | 0.28 | 92 | 1008.0 |
| 20260507002102 | 12 | 0 | 1.6 | 8.0 | 0.00 | 0.28 | 0.28 | 92 | 1008.0 |
| 20260507001611 | 12 | 0 | 3.2 | 9.7 | 0.00 | 0.28 | 0.28 | 92 | 1008.1 |
| 20260507001057 | 12 | 240 | 1.6 | 9.7 | 0.00 | 0.28 | 0.28 | 92 | 1008.0 |
| 20260507000601 | 12 | 210 | 1.6 | 16.1 | 0.05 | 0.28 | 0.28 | 92 | 1008.0 |
| 20260507000100 | 12 | 159 | 4.8 | 16.1 | 0.08 | 0.28 | 0.28 | 92 | 1008.0 |
| 20260506235601 | 12 | 266 | 1.6 | 12.9 | 0.10 | 0.28 | 0.28 | 92 | 1008.1 |
| 20260506235058 | 12 | 115 | 3.2 | 12.9 | 0.10 | 0.28 | 0.28 | 92 | 1008.0 |
| 20260506234612 | 12 | 0 | 4.8 | 12.9 | 0.10 | 0.28 | 0.28 | 92 | 1008.0 |
| 20260506234058 | 12 | 0 | 3.2 | 8.0 | 0.10 | 0.28 | 0.28 | 92 | 1008.0 |
| 20260506233603 | 13 | 182 | 1.6 | 11.3 | 0.10 | 0.28 | 0.28 | 92 | 1008.0 |
| 20260506233101 | 12 | 180 | 3.2 | 19.3 | 0.13 | 0.28 | 0.28 | 92 | 1008.0 |
| 20260506232559 | 12 | 180 | 4.8 | 19.3 | 0.13 | 0.28 | 0.28 | 92 | 1008.0 |
| 20260506232059 | 12 | 172 | 3.2 | 9.7 | 0.15 | 0.28 | 0.28 | 92 | 1008.0 |
| 20260506231600 | 13 | 223 | 1.6 | 11.3 | 0.15 | 0.28 | 0.28 | 92 | 1008.0 |
| 20260506231059 | 12 | 313 | 1.6 | 12.9 | 0.15 | 0.28 | 0.28 | 91 | 1008.0 |
| 20260506230558 | 12 | 111 | 3.2 | 12.9 | 0.10 | 0.23 | 0.23 | 91 | 1007.9 |
| 20260506225602 | 13 | 200 | 1.6 | 9.7 | 0.05 | 0.18 | 0.18 | 91 | 1007.8 |
| 20260506225102 | 12 | 0 | 1.6 | 8.0 | 0.05 | 0.18 | 0.18 | 91 | 1007.7 |
| 20260506224600 | 13 | 159 | 1.6 | 14.5 | 0.05 | 0.18 | 0.18 | 91 | 1007.6 |
| 20260506224058 | 13 | 200 | 1.6 | 14.5 | 0.05 | 0.18 | 0.18 | 91 | 1007.7 |
| 20260506223558 | 13 | 0 | 1.6 | 12.9 | 0.05 | 0.18 | 0.18 | 91 | 1007.8 |
| 20260506223100 | 13 | 192 | 3.2 | 12.9 | 0.03 | 0.15 | 0.15 | 91 | 1007.9 |
| 20260506222601 | 13 | 174 | 3.2 | 14.5 | 0.03 | 0.15 | 0.15 | 90 | 1007.9 |
| 20260506222059 | 13 | 212 | 3.2 | 20.9 | 0.00 | 0.13 | 0.13 | 90 | 1007.9 |
| 20260506221558 | 13 | 0 | 4.8 | 20.9 | 0.00 | 0.13 | 0.13 | 90 | 1008.2 |
| 20260506221058 | 13 | 211 | 1.6 | 19.3 | 0.03 | 0.13 | 0.13 | 90 | 1008.2 |
| 20260506220558 | 13 | 215 | 3.2 | 19.3 | 0.03 | 0.13 | 0.13 | 90 | 1008.2 |
| 20260506220058 | 13 | 199 | 4.8 | 16.1 | 0.03 | 0.13 | 0.13 | 90 | 1008.3 |
| 20260506215557 | 13 | 194 | 3.2 | 11.3 | 0.05 | 0.13 | 0.13 | 90 | 1008.4 |
| 20260506215059 | 13 | 192 | 3.2 | 11.3 | 0.05 | 0.13 | 0.13 | 90 | 1008.3 |
| 20260506214558 | 13 | 181 | 3.2 | 11.3 | 0.05 | 0.13 | 0.13 | 90 | 1008.4 |
| 20260506214059 | 13 | 200 | 3.2 | 11.3 | 0.05 | 0.13 | 0.13 | 90 | 1008.3 |
| 20260506213600 | 13 | 153 | 3.2 | 11.3 | 0.05 | 0.13 | 0.13 | 90 | 1008.4 |
| 20260506213139 | 13 | 0 | 1.6 | 12.9 | 0.05 | 0.13 | 0.13 | 90 | 1008.5 |
| 20260506212558 | 13 | 207 | 3.2 | 14.5 | 0.05 | 0.13 | 0.13 | 89 | 1008.6 |
| 20260506212058 | 13 | 180 | 3.2 | 16.1 | 0.05 | 0.13 | 0.13 | 89 | 1008.4 |
| 20260506211625 | 13 | 193 | 4.8 | 16.1 | 0.05 | 0.13 | 0.13 | 88 | 1008.6 |
| 20260506211057 | 13 | 175 | 3.2 | 19.3 | 0.03 | 0.10 | 0.10 | 88 | 1008.6 |
| 20260506210601 | 13 | 198 | 3.2 | 20.9 | 0.03 | 0.10 | 0.10 | 88 | 1008.6 |
| 20260506210126 | 13 | 153 | 4.8 | 20.9 | 0.03 | 0.10 | 0.10 | 87 | 1008.8 |
| 20260506205559 | 13 | 187 | 3.2 | 24.1 | 0.03 | 0.08 | 0.08 | 87 | 1008.8 |
| 20260506205059 | 13 | 219 | 4.8 | 24.1 | 0.05 | 0.08 | 0.08 | 88 | 1008.7 |
| 20260506204601 | 13 | 200 | 4.8 | 20.9 | 0.05 | 0.08 | 0.08 | 88 | 1008.8 |
| 20260506204057 | 13 | 169 | 3.2 | 12.9 | 0.08 | 0.08 | 0.08 | 88 | 1008.9 |
| 20260506203558 | 13 | 142 | 1.6 | 16.1 | 0.08 | 0.08 | 0.08 | 88 | 1008.9 |
| 20260506203105 | 13 | 302 | 3.2 | 16.1 | 0.08 | 0.08 | 0.08 | 88 | 1008.9 |
| 20260506202604 | 13 | 161 | 1.6 | 16.1 | 0.08 | 0.08 | 0.08 | 88 | 1008.9 |
| 20260506202104 | 13 | 0 | 3.2 | 20.9 | 0.08 | 0.08 | 0.08 | 88 | 1009.0 |
| 20260506201610 | 13 | 94 | 4.8 | 20.9 | 0.08 | 0.08 | 0.08 | 87 | 1009.1 |
| 20260506201100 | 13 | 207 | 4.8 | 20.9 | 0.08 | 0.08 | 0.08 | 87 | 1009.1 |
| 20260506200600 | 13 | 222 | 1.6 | 12.9 | 0.08 | 0.08 | 0.08 | 87 | 1009.1 |
| 20260506200103 | 14 | 198 | 1.6 | 11.3 | 0.08 | 0.08 | 0.08 | 86 | 1009.1 |
| 20260506195602 | 14 | 130 | 1.6 | 16.1 | 0.05 | 0.05 | 0.05 | 85 | 1009.3 |
| 20260506195103 | 14 | 167 | 3.2 | 17.7 | 0.03 | 0.03 | 0.03 | 84 | 1009.3 |
| 20260506194623 | 15 | 219 | 4.8 | 17.7 | 0.03 | 0.03 | 0.03 | 83 | 1009.4 |
| 20260506194100 | 15 | 114 | 3.2 | 12.9 | 0.00 | 0.00 | 0.00 | 81 | 1009.5 |
| 20260506193601 | 15 | 219 | 3.2 | 14.5 | 0.00 | 0.00 | 0.00 | 80 | 1009.5 |
| 20260506193102 | 15 | 164 | 4.8 | 14.5 | 0.00 | 0.00 | 0.00 | 78 | 1009.5 |
| 20260506192559 | 16 | 160 | 1.6 | 17.7 | 0.00 | 0.00 | 0.00 | 77 | 1009.4 |
| 20260506192058 | 16 | 165 | 3.2 | 17.7 | 0.00 | 0.00 | 0.00 | 76 | 1009.3 |
| 20260506191607 | 16 | 188 | 4.8 | 17.7 | 0.00 | 0.00 | 0.00 | 76 | 1009.5 |
| 20260506191059 | 16 | 142 | 4.8 | 17.7 | 0.00 | 0.00 | 0.00 | 76 | 1009.4 |
| 20260506190558 | 16 | 213 | 4.8 | 17.7 | 0.00 | 0.00 | 0.00 | 76 | 1009.5 |
| 20260506190100 | 16 | 224 | 4.8 | 16.1 | 0.00 | 0.00 | 0.00 | 75 | 1009.5 |
| 20260506185557 | 16 | 0 | 3.2 | 16.1 | 0.00 | 0.00 | 0.00 | 76 | 1009.5 |
| 20260506185102 | 16 | 129 | 4.8 | 16.1 | 0.00 | 0.00 | 0.00 | 75 | 1009.2 |
| 20260506184609 | 16 | 136 | 4.8 | 22.5 | 0.00 | 0.00 | 0.00 | 75 | 1009.4 |
| 20260506184101 | 16 | 182 | 4.8 | 22.5 | 0.00 | 0.00 | 0.00 | 75 | 1009.5 |
| 20260506183600 | 16 | 107 | 6.4 | 20.9 | 0.00 | 0.00 | 0.00 | 74 | 1009.6 |
| 20260506183103 | 16 | 175 | 6.4 | 20.9 | 0.00 | 0.00 | 0.00 | 74 | 1009.6 |
| 20260506182601 | 16 | 200 | 6.4 | 22.5 | 0.00 | 0.00 | 0.00 | 74 | 1009.6 |
| 20260506182059 | 17 | 193 | 6.4 | 22.5 | 0.00 | 0.00 | 0.00 | 73 | 1009.7 |
| 20260506181601 | 17 | 135 | 3.2 | 19.3 | 0.00 | 0.00 | 0.00 | 73 | 1009.5 |